Wind_Speed
111 110 110 109 109 108 108 107 106 106 106 106 106 105 104 103 102 102 102 102 102 103 102 102 101 100 100 100 99 99 98 98 97 96 94 93 93 94 93 93 94 95 97 98 95 94 95 95 94 94 93 93
113 113 113 113 112 112 111 111 110 109 109 109 109 109 107 106 105 104 104 104 104 104 104 103 103 102 102 102 101 101 100 100 99 98 97 96 96 96 96 95 95 97 99 101 98 97 97 98 98 97 97 96
116 115 116 115 115 115 115 114 113 113 112 112 112 112 111 110 109 108 107 106 106 106 106 105 104 105 105 104 103 103 103 102 101 101 99 98 98 98 98 97 97 97 100 103 101 99 100 100 100 100 100 99
116 117 117 117 117 118 117 117 117 116 116 115 115 115 114 114 112 112 111 110 109 109 109 108 107 107 107 106 105 105 105 104 103 103 101 100 100 100 100 99 98 98 101 104 103 101 103 103 103 103 103 102
117 117 118 118 119 119 119 119 119 119 119 119 118 118 117 117 116 115 114 114 113 112 112 111 110 110 109 108 107 107 106 106 106 106 104 103 102 102 102 101 100 100 102 104 104 103 104 105 105 105 105 104
119 119 119 119 120 120 121 121 121 121 121 121 121 121 121 120 119 119 118 117 116 116 115 114 113 113 113 112 110 110 109 108 108 108 107 106 105 104 104 103 102 102 104 105 107 106 105 106 106 106 106 106
120 121 121 121 122 122 122 123 123 123 123 123 124 123 123 123 122 122 121 120 120 119 119 118 117 116 116 115 114 113 112 111 111 110 110 109 107 106 106 105 104 105 107 107 109 109 107 106 107 107 108 108
122 123 123 123 124 124 124 125 125 125 125 126 126 126 126 125 125 124 124 123 123 122 122 121 121 120 119 119 118 117 116 115 114 113 112 112 109 108 108 107 107 108 109 109 111 112 109 107 108 109 109 109
121 123 124 125 126 126 127 127 127 128 128 128 128 128 128 128 127 127 126 125 125 125 125 124 124 123 122 122 121 120 119 118 118 117 116 115 112 110 110 109 109 111 112 111 112 113 111 109 110 111 111 111
115 118 121 124 126 127 128 129 130 130 130 130 130 131 131 130 130 129 129 128 127 127 127 127 126 126 125 124 124 124 123 122 121 120 120 118 116 113 112 111 111 112 114 114 114 114 114 112 112 112 113 113
111 113 115 118 120 123 126 128 130 131 132 132 132 133 133 133 132 132 131 130 130 129 129 129 128 128 128 127 127 127 126 125 124 123 123 122 120 117 116 114 113 114 115 116 116 116 116 115 114 114 114 115
114 114 114 115 116 118 120 122 125 127 130 131 133 134 134 135 134 134 133 133 132 131 131 131 131 131 130 130 129 129 129 128 127 126 126 125 123 121 119 118 117 117 117 118 117 117 117 117 116 115 115 116
119 119 118 118 118 118 118 119 120 122 124 126 128 130 132 133 135 135 135 135 135 134 134 133 133 133 132 132 132 132 131 131 130 129 129 128 127 125 123 122 120 120 120 120 119 119 118 118 118 117 117 117
122 122 122 122 122 122 122 121 121 121 121 122 123 124 125 127 129 131 132 133 134 135 135 135 135 135 135 134 134 134 134 133 133 132 132 131 130 128 127 125 124 123 123 123 122 121 120 120 119 118 118 118
122 123 124 125 126 126 126 125 125 124 124 124 123 123 123 123 123 124 126 127 128 129 131 132 134 135 135 136 137 137 136 136 135 135 134 133 132 131 130 129 127 126 126 126 125 124 123 122 121 120 119 119
120 122 123 125 126 127 128 128 128 128 128 128 127 127 126 126 125 124 124 123 124 124 124 125 127 128 130 132 134 136 137 137 138 138 137 136 135 134 133 131 130 129 129 128 128 128 127 126 125 123 122 122
120 121 122 123 124 126 127 128 129 130 131 131 131 131 130 130 129 128 127 125 125 124 123 123 122 123 123 124 126 128 131 132 135 137 137 137 137 136 135 134 133 132 131 131 131 131 130 130 128 127 126 126
122 122 122 123 124 124 125 126 127 129 130 131 131 132 132 132 132 132 131 130 128 127 126 125 124 123 122 122 122 122 124 125 127 129 132 133 135 136 136 136 136 135 134 134 134 133 133 133 132 131 130 129
124 124 124 124 124 124 124 124 125 126 127 128 129 130 131 133 133 134 134 133 132 131 130 129 128 127 126 124 123 122 122 122 122 123 125 126 128 130 132 133 135 136 136 136 136 136 135 135 135 134 133 132
125 125 126 125 125 125 125 125 125 125 125 126 127 128 129 130 132 132 133 134 134 134 134 133 132 131 130 129 127 126 125 124 122 122 122 123 124 125 125 126 128 131 133 135 137 138 138 138 138 137 136 135
125 126 126 126 127 127 127 127 127 126 126 126 126 126 127 128 129 130 131 132 133 133 134 134 134 134 133 133 132 130 129 128 126 124 123 123 123 123 123 123 123 124 126 128 131 135 138 139 139 139 139 138
126 126 127 127 127 127 127 127 127 127 127 126 126 126 127 127 128 128 129 130 131 132 132 133 134 135 135 135 135 134 133 132 131 129 127 126 125 125 124 124 123 121 121 123 125 127 131 134 137 139 140 141
126 126 127 126 126 125 125 125 125 125 126 127 127 128 129 129 129 129 129 130 130 131 131 131 132 133 135 136 136 136 136 136 135 133 131 130 129 128 127 126 125 123 121 121 122 123 124 127 130 134 137 139
122 123 123 123 123 123 123 123 124 124 125 126 128 129 130 131 131 131 131 131 131 131 131 131 131 131 133 134 135 136 136 137 137 137 136 134 133 132 131 130 128 127 125 123 123 123 123 124 126 127 130 132
117 117 118 118 119 119 120 121 121 122 123 125 126 128 129 130 131 131 131 132 132 132 132 131 131 131 131 132 134 135 135 136 137 137 138 137 136 135 134 133 132 131 130 128 126 126 126 125 125 124 125 125
112 112 112 112 113 114 115 116 116 117 119 121 124 125 127 128 129 130 130 131 132 132 133 133 132 132 131 131 132 133 134 135 135 136 137 138 138 138 137 136 136 135 134 133 130 129 129 129 128 126 124 123
107 107 106 106 106 107 108 109 109 110 111 115 118 120 122 124 126 127 129 130 131 131 132 134 134 134 133 132 131 131 132 133 134 134 135 136 137 138 138 138 138 138 138 136 134 133 133 133 132 130 127 124
102 101 100 100 101 101 102 103 104 105 107 110 113 115 117 118 120 122 125 126 128 130 131 132 134 134 133 132 132 132 131 131 132 133 134 135 135 136 137 138 139 140 141 140 138 137 137 136 136 134 130 127
97 96 94 94 95 95 97 98 100 102 105 108 110 112 114 115 117 118 120 122 124 126 128 130 131 131 131 130 130 131 132 131 131 131 132 133 134 135 136 137 138 140 141 142 141 141 141 140 138 136 134 131
94 92 90 89 89 90 92 94 97 100 103 105 107 109 111 112 113 115 116 118 120 122 124 126 127 128 128 127 127 128 129 131 132 131 131 132 132 133 134 135 137 138 140 141 142 143 143 143 141 138 137 137
89 88 86 85 86 87 91 94 96 98 100 100 102 104 105 107 108 110 111 113 115 118 119 121 122 124 125 125 125 125 125 127 130 132 132 132 132 132 132 133 134 136 138 140 141 143 144 144 143 141 140 140
Wind_Direction
255 255 255 255 255 255 255 255 255 256 256 257 257 256 256 255 255 255 255 255 254 254 254 253 253 252 252 251 251 250 250 250 249 247 246 245 244 243 242 241 241 242 243 244 244 244 244 244 244 244 244 244
254 254 254 254 254 254 254 254 254 254 254 255 256 256 255 255 254 254 254 254 254 254 254 254 254 253 253 252 251 251 250 250 249 248 247 246 245 245 244 242 241 241 243 244 243 243 244 244 244 244 244 243
253 253 253 253 253 253 253 253 253 253 253 253 254 254 255 255 254 254 253 253 253 253 253 253 253 253 253 252 252 251 251 250 250 249 248 247 246 246 245 244 242 242 242 243 243 242 243 243 243 244 244 243
253 253 253 253 253 253 253 253 253 253 252 252 253 253 253 254 254 253 253 253 252 252 252 252 252 252 252 252 252 252 251 251 251 250 249 248 247 247 246 245 244 243 243 244 243 242 243 243 243 243 244 244
251 252 252 252 252 252 252 252 252 252 252 252 252 252 252 253 253 253 253 253 252 252 252 252 252 251 251 251 251 251 251 251 251 251 250 249 248 247 247 246 245 244 244 244 244 243 242 243 243 243 243 244
251 251 251 251 251 251 251 252 252 252 252 252 252 252 252 252 252 252 252 252 252 252 252 252 252 251 251 251 251 251 251 250 250 250 250 250 249 248 247 247 246 245 245 245 245 244 243 243 243 243 244 244
251 251 250 250 250 250 250 250 251 251 251 251 251 251 251 251 251 251 251 251 251 251 251 251 251 251 251 251 251 251 251 250 250 250 250 250 249 249 248 248 247 246 245 245 245 245 244 243 244 244 244 244
252 251 251 251 250 250 250 250 250 250 250 250 250 250 250 250 251 251 251 251 251 251 251 251 251 251 251 251 251 251 250 250 250 250 249 249 249 249 249 248 248 247 246 246 246 246 245 244 244 244 244 244
253 252 252 251 251 251 250 250 250 250 249 249 250 250 250 250 250 250 250 250 250 250 250 250 250 250 250 250 250 251 250 250 250 250 249 249 248 248 248 248 248 247 247 247 246 247 246 245 245 245 245 245
253 253 253 252 252 251 251 250 250 250 250 250 250 249 249 249 249 249 249 249 249 249 250 250 250 250 250 249 250 250 250 250 250 250 250 249 249 248 247 247 247 247 247 247 247 247 247 246 245 245 245 245
253 252 252 253 252 252 251 251 251 250 250 250 250 250 250 250 249 249 249 249 248 249 249 249 249 249 250 249 249 249 249 249 249 249 250 250 249 248 247 247 247 247 247 247 247 247 247 247 246 246 246 246
253 252 252 252 252 252 252 252 251 251 251 250 250 250 250 250 250 250 249 249 249 248 248 249 249 249 249 249 249 249 249 249 249 249 249 249 249 248 248 247 246 246 247 247 247 247 247 247 247 247 246 246
253 253 252 252 252 252 252 252 252 252 252 251 251 251 251 251 250 250 250 250 249 249 249 248 248 249 249 249 249 249 249 249 249 248 248 248 248 248 248 247 247 246 247 247 247 247 247 247 247 247 247 247
255 254 254 253 253 252 252 252 252 252 252 252 252 251 251 251 251 251 251 250 250 250 249 249 249 249 249 249 249 249 249 249 249 249 248 248 248 247 247 247 246 246 247 247 247 247 247 247 247 247 247 247
257 256 255 254 254 253 253 252 252 252 252 252 252 252 251 251 250 251 251 251 250 250 250 250 249 249 249 249 249 249 249 249 249 249 249 248 248 248 247 247 246 246 246 247 247 247 247 247 247 247 246 246
258 257 257 256 255 254 254 253 253 252 252 252 252 252 252 251 251 250 250 250 250 250 249 249 249 249 249 249 249 249 249 249 249 249 249 249 248 248 248 247 247 246 246 246 246 246 246 246 246 246 246 246
258 258 257 257 256 256 255 254 254 253 252 252 252 252 252 252 252 251 250 250 249 249 249 249 249 248 248 248 249 249 249 249 249 249 248 248 248 248 248 248 247 247 246 246 246 246 246 246 246 246 246 246
259 258 257 257 256 256 256 255 255 254 254 253 253 253 252 252 252 252 252 251 250 250 249 249 248 248 248 247 247 248 248 249 249 249 249 248 248 248 248 248 247 247 246 246 246 246 246 246 246 245 245 245
260 259 259 258 258 257 257 256 256 255 255 255 255 254 253 253 252 252 252 252 251 251 250 249 249 249 248 247 247 246 247 247 248 248 249 248 248 247 247 247 247 247 246 246 246 246 246 246 246 246 245 245
261 261 260 260 260 259 259 258 258 257 256 256 255 255 255 254 254 253 253 252 252 251 251 250 250 249 249 248 247 247 246 246 246 247 248 248 248 248 247 246 246 246 246 246 246 246 246 246 246 246 246 245
262 261 261 260 260 259 259 259 259 258 257 257 256 256 255 255 255 254 254 253 252 252 251 251 250 250 249 248 248 247 247 246 246 246 246 247 247 248 247 246 246 246 246 246 246 246 246 246 246 246 246 245
262 261 261 260 260 259 259 258 258 258 258 258 257 257 256 256 255 254 254 254 253 252 252 251 251 250 250 249 248 248 247 247 246 245 245 245 246 247 247 247 246 245 245 245 245 245 246 246 246 246 246 246
262 261 261 261 261 260 260 259 259 258 258 258 257 257 257 256 255 255 254 254 253 252 252 251 251 250 250 250 249 248 247 247 246 246 245 245 245 245 246 246 246 245 244 244 245 245 245 245 245 245 245 245
263 262 262 262 261 261 261 260 260 259 259 258 258 257 257 256 256 255 255 255 254 253 252 251 251 250 250 250 250 249 248 247 246 246 245 245 244 245 245 246 246 246 245 244 244 245 244 244 244 245 245 245
264 264 263 263 262 262 261 261 260 259 259 258 258 257 257 257 256 256 255 255 255 254 254 253 252 251 250 250 250 250 249 248 247 246 246 245 244 244 244 245 245 245 245 244 244 244 244 244 244 244 245 245
265 264 264 263 263 262 262 261 261 260 259 259 258 258 257 257 257 257 256 255 254 254 254 254 253 252 251 250 249 249 249 249 248 247 247 246 245 244 243 244 244 244 245 245 244 244 244 245 244 243 243 244
266 265 265 264 263 263 262 262 261 261 260 259 258 258 257 257 257 257 256 256 255 255 254 253 253 252 251 250 250 249 248 248 248 248 247 247 246 245 244 243 243 244 244 244 244 244 244 244 244 244 243 243
266 265 264 263 263 263 262 262 262 261 260 259 258 258 257 256 256 255 255 255 255 255 254 254 253 252 251 251 250 250 249 248 248 248 248 247 247 246 245 244 243 243 243 243 244 244 244 244 245 245 244 243
266 266 264 264 263 262 262 261 260 260 259 258 257 256 256 255 254 254 253 253 253 253 253 253 253 252 251 250 250 250 250 250 249 248 248 248 247 246 246 245 244 243 243 243 243 243 244 244 244 245 245 244
268 268 267 266 265 264 264 262 261 259 257 256 255 255 254 253 253 252 252 251 251 251 251 251 252 252 252 251 249 248 248 249 250 249 249 248 248 247 246 246 245 245 244 243 243 243 243 243 244 244 244 244
270 270 270 269 267 266 264 262 260 259 258 257 256 255 254 254 253 252 252 251 250 250 250 250 250 251 251 250 249 248 246 246 247 248 249 248 248 247 247 246 245 245 245 244 243 243 243 243 243 243 243 244
Height
10604 10606 10607 10608 10609 10611 10611 10612 10615 10617 10616 10617 10618 10622 10625 10628 10632 10634 10636 10637 10639 10640 10643 10647 10649 10653 10657 10659 10662 10664 10668 10671 10673 10679 10684 10688 10690 10691 10695 10699 10702 10702 10699 10699 10708 10714 10714 10717 10718 10721 10724 10728
10591 10593 10594 10595 10597 10598 10599 10600 10603 10606 10606 10606 10606 10608 10612 10616 10620 10622 10624 10625 10627 10628 10631 10636 10638 10641 10644 10646 10650 10653 10656 10659 10662 10665 10672 10676 10678 10681 10684 10689 10691 10693 10691 10688 10697 10704 10704 10706 10708 10711 10714 10718
10578 10580 10581 10583 10584 10585 10586 10588 10591 10593 10594 10595 10595 10596 10599 10603 10607 10610 10611 10614 10615 10616 10619 10624 10627 10629 10631 10634 10638 10641 10644 10647 10650 10653 10659 10664 10666 10670 10673 10677 10681 10684 10682 10677 10685 10693 10693 10695 10698 10700 10703 10707
10566 10566 10568 10570 10571 10572 10574 10576 10577 10580 10581 10582 10584 10585 10587 10591 10594 10596 10598 10601 10603 10604 10607 10611 10615 10616 10618 10622 10626 10630 10632 10635 10639 10640 10646 10652 10654 10658 10661 10664 10670 10674 10671 10667 10674 10682 10681 10683 10687 10689 10692 10696
10554 10554 10555 10557 10558 10560 10561 10562 10564 10566 10567 10569 10572 10573 10575 10578 10581 10583 10586 10588 10590 10592 10594 10598 10603 10604 10606 10610 10614 10617 10621 10623 10627 10628 10632 10639 10642 10646 10649 10652 10659 10662 10661 10659 10661 10668 10670 10671 10675 10678 10680 10685
10540 10540 10541 10542 10544 10545 10546 10548 10550 10552 10553 10555 10558 10559 10562 10565 10567 10570 10573 10575 10577 10579 10581 10585 10589 10592 10593 10597 10601 10604 10608 10611 10614 10616 10619 10625 10630 10634 10638 10641 10647 10650 10650 10649 10648 10653 10659 10660 10664 10667 10669 10673
10524 10525 10526 10527 10528 10529 10531 10532 10534 10536 10538 10540 10542 10544 10547 10550 10553 10556 10559 10562 10565 10567 10569 10571 10575 10579 10581 10583 10588 10592 10596 10599 10601 10604 10607 10611 10618 10623 10626 10630 10635 10637 10636 10638 10636 10637 10647 10651 10653 10656 10658 10662
10508 10509 10510 10511 10513 10513 10515 10516 10518 10520 10522 10524 10526 10528 10531 10535 10539 10541 10544 10548 10551 10553 10555 10558 10561 10565 10568 10569 10574 10579 10583 10586 10587 10592 10594 10597 10606 10612 10614 10618 10623 10623 10623 10627 10625 10624 10634 10642 10643 10645 10648 10651
10491 10492 10493 10495 10497 10498 10499 10500 10502 10504 10506 10507 10509 10512 10515 10518 10522 10526 10530 10533 10535 10538 10541 10544 10547 10550 10555 10556 10559 10564 10568 10572 10574 10578 10581 10584 10593 10600 10602 10606 10611 10610 10610 10614 10614 10613 10621 10630 10633 10634 10636 10639
10476 10476 10477 10478 10480 10482 10483 10484 10486 10487 10489 10491 10493 10496 10498 10502 10506 10509 10514 10518 10520 10523 10526 10530 10533 10535 10539 10543 10545 10548 10553 10558 10560 10563 10567 10570 10579 10587 10590 10594 10598 10598 10597 10600 10603 10604 10609 10616 10620 10623 10625 10627
10461 10461 10461 10462 10462 10464 10466 10467 10469 10470 10472 10475 10477 10480 10483 10485 10489 10493 10497 10501 10505 10508 10511 10515 10518 10520 10524 10528 10531 10533 10536 10542 10547 10550 10552 10556 10563 10572 10577 10581 10585 10585 10584 10587 10590 10593 10597 10602 10607 10612 10615 10616
10445 10446 10446 10447 10447 10448 10449 10450 10452 10454 10456 10459 10461 10464 10467 10469 10473 10477 10482 10485 10490 10494 10497 10500 10503 10506 10509 10513 10516 10517 10521 10526 10531 10535 10538 10542 10548 10555 10562 10566 10571 10572 10571 10573 10577 10582 10586 10589 10594 10599 10604 10605
10430 10431 10431 10432 10433 10433 10434 10435 10436 10438 10440 10443 10446 10449 10452 10454 10457 10461 10466 10470 10474 10478 10482 10486 10488 10491 10494 10498 10501 10502 10506 10511 10515 10520 10523 10527 10533 10539 10546 10551 10556 10558 10558 10560 10564 10569 10573 10577 10581 10587 10592 10594
10414 10415 10416 10417 10418 10419 10420 10421 10422 10423 10425 10427 10430 10433 10437 10440 10443 10445 10449 10454 10458 10463 10466 10471 10474 10477 10480 10483 10486 10487 10491 10496 10499 10503 10507 10512 10518 10524 10530 10536 10540 10543 10544 10546 10551 10555 10560 10565 10569 10575 10580 10583
10397 10398 10399 10400 10402 10403 10405 10407 10408 10410 10410 10412 10413 10416 10419 10423 10427 10430 10433 10437 10442 10447 10451 10455 10459 10463 10466 10468 10470 10472 10477 10481 10483 10487 10492 10497 10503 10508 10514 10520 10525 10529 10531 10533 10538 10542 10547 10551 10556 10562 10567 10570
10379 10380 10381 10382 10384 10385 10388 10390 10392 10394 10395 10396 10397 10398 10401 10404 10408 10413 10417 10420 10424 10429 10434 10438 10442 10446 10450 10453 10456 10457 10461 10466 10468 10471 10477 10482 10487 10492 10498 10504 10510 10515 10518 10520 10523 10527 10531 10535 10541 10547 10551 10554
10361 10362 10363 10363 10365 10366 10369 10372 10374 10375 10377 10379 10381 10383 10386 10388 10391 10395 10400 10404 10408 10411 10416 10421 10425 10429 10434 10438 10441 10443 10445 10450 10453 10455 10462 10467 10471 10476 10482 10488 10495 10499 10503 10505 10507 10511 10515 10519 10525 10530 10535 10539
10343 10343 10345 10346 10347 10349 10351 10353 10355 10358 10360 10363 10366 10369 10371 10373 10375 10378 10382 10387 10392 10396 10400 10403 10408 10412 10416 10421 10425 10429 10431 10434 10438 10440 10445 10450 10455 10461 10466 10471 10477 10482 10487 10490 10492 10496 10500 10504 10508 10514 10521 10524
10326 10327 10328 10329 10331 10333 10335 10337 10340 10342 10345 10347 10349 10351 10353 10356 10359 10362 10366 10370 10375 10379 10383 10388 10392 10395 10399 10404 10409 10413 10416 10419 10424 10426 10430 10434 10438 10444 10450 10455 10460 10465 10471 10474 10477 10482 10485 10489 10492 10498 10506 10510
10310 10311 10312 10313 10315 10317 10319 10321 10324 10327 10329 10331 10333 10334 10336 10338 10341 10345 10349 10353 10357 10362 10366 10370 10375 10379 10383 10387 10392 10397 10400 10404 10409 10412 10416 10419 10422 10427 10434 10440 10445 10449 10454 10459 10462 10465 10469 10473 10477 10482 10489 10495
10293 10294 10295 10296 10298 10299 10301 10303 10305 10308 10310 10313 10316 10318 10320 10322 10324 10327 10331 10334 10338 10343 10348 10352 10357 10361 10366 10370 10374 10379 10384 10388 10393 10397 10402 10405 10407 10411 10417 10423 10430 10434 10438 10443 10447 10447 10452 10457 10461 10466 10472 10478
10274 10274 10275 10276 10277 10280 10282 10284 10287 10290 10292 10295 10298 10300 10303 10304 10307 10310 10312 10315 10318 10323 10328 10334 10338 10342 10346 10351 10356 10361 10366 10371 10376 10381 10387 10391 10393 10396 10400 10406 10413 10421 10425 10428 10430 10433 10437 10441 10446 10450 10454 10459
10253 10253 10255 10257 10259 10262 10264 10267 10270 10273 10276 10278 10280 10281 10282 10284 10287 10290 10293 10296 10299 10302 10308 10314 10320 10324 10326 10330 10336 10342 10348 10353 10358 10364 10370 10376 10379 10381 10384 10390 10396 10405 10411 10413 10414 10418 10422 10424 10428 10433 10437 10443
10233 10235 10236 10239 10242 10245 10247 10249 10252 10255 10258 10259 10260 10261 10262 10264 10267 10271 10274 10277 10280 10283 10288 10294 10300 10306 10309 10312 10316 10322 10329 10335 10339 10345 10352 10359 10364 10367 10370 10375 10381 10387 10394 10399 10400 10402 10405 10408 10412 10418 10424 10430
10214 10216 10218 10221 10224 10226 10228 10230 10233 10236 10239 10240 10241 10242 10243 10244 10247 10251 10255 10259 10262 10264 10268 10274 10280 10286 10291 10295 10300 10304 10309 10316 10321 10326 10332 10340 10346 10352 10355 10360 10366 10370 10374 10380 10385 10388 10390 10394 10400 10406 10411 10416
10196 10198 10200 10203 10206 10207 10208 10211 10214 10218 10221 10222 10222 10223 10224 10226 10228 10231 10235 10239 10242 10246 10250 10253 10258 10265 10271 10277 10282 10287 10292 10296 10302 10308 10314 10320 10327 10334 10340 10345 10350 10354 10355 10360 10369 10376 10378 10378 10383 10390 10396 10402
10177 10180 10183 10185 10188 10190 10191 10194 10197 10200 10203 10203 10202 10203 10205 10207 10210 10213 10215 10218 10221 10226 10231 10233 10236 10242 10249 10256 10263 10269 10275 10279 10284 10290 10295 10301 10308 10315 10322 10330 10334 10336 10339 10345 10354 10360 10360 10360 10365 10371 10380 10391
10159 10163 10166 10169 10172 10174 10176 10179 10181 10182 10183 10182 10182 10183 10185 10188 10191 10193 10195 10198 10201 10203 10208 10211 10213 10220 10228 10236 10244 10250 10256 10262 10268 10273 10277 10282 10290 10296 10303 10311 10317 10319 10322 10329 10336 10339 10341 10347 10351 10355 10368 10382
10142 10145 10150 10153 10156 10159 10160 10162 10164 10163 10161 10160 10160 10162 10165 10167 10169 10172 10174 10179 10182 10183 10186 10190 10192 10197 10206 10216 10225 10232 10238 10244 10250 10256 10260 10264 10271 10278 10285 10292 10298 10303 10306 10311 10317 10320 10324 10330 10335 10343 10356 10364
10127 10128 10132 10137 10140 10142 10143 10142 10142 10139 10137 10138 10140 10142 10144 10147 10149 10152 10156 10160 10162 10163 10167 10171 10174 10178 10185 10194 10202 10212 10221 10227 10232 10237 10242 10247 10252 10259 10267 10274 10279 10284 10290 10295 10299 10302 10307 10313 10320 10331 10339 10340
10114 10115 10118 10121 10123 10125 10123 10120 10119 10117 10115 10119 10122 10124 10126 10129 10132 10135 10138 10142 10144 10146 10150 10155 10158 10161 10167 10173 10179 10186 10197 10207 10214 10218 10222 10228 10233 10240 10247 10254 10261 10268 10272 10276 10282 10286 10292 10298 10304 10314 10320 10323